Weather History for Newport, AR

Change the Weather History Date:

Wednesday, August 21, 2013

  Actual Average (KJBR) Record (KJBR)
Temperature  
Mean Temperature 78 °F 80 °F  
Max Temperature 91 °F 90 °F 108 °F (1900)
Min Temperature 66 °F 70 °F 47 °F (1897)
Degree Days  
Heating Degree Days 0 0  
Month to date heating degree days 0  
Since 1 June heating degree days 1  
Since 1 July heating degree days 0  
Cooling Degree Days 14 15  
Month to date cooling degree days 326  
Year to date cooling degree days 1413  
Since 1 June cooling degree days 1200  
Growing Degree Days 28 (Base 50)    
Moisture  
Dew Point 69 °F    
Average Humidity 89    
Maximum Humidity 100    
Minimum Humidity 44    
Precipitation  
Precipitation 0.00 in 0.08 in 2.83 in (1960)
Month to date precipitation 1.73  
Year to date precipitation 30.30  
Snow  
Snow 0.00 in 0.00 in - ()
Month to date snowfall 0.0  
Since 1 June snowfall 0.0  
Since 1 July snowfall 0.0  
Snow Depth -    
Sea Level Pressure  
Sea Level Pressure 30.10 in    
Wind  
Wind Speed 2 mph (NNE)    
Max Wind Speed 9 mph    
Max Gust Speed -    
Visibility 5 miles    
Events Fog    
T = Trace of Precipitation, MM = Missing Value Source: NWS Daily Summary

Daily Weather History Graph

Daily Weather History Graph

Search for Another Location

Airport:

Trip Planner

Search our weather history database for the weather conditions in past years. The results will help you decide how hot, cold, wet, or windy it might be!

Date:

Astronomy

Aug. 21, 2013 Rise Set
Actual Time 6:28 AM CDT 7:46 PM CDT
Civil Twilight 6:01 AM CDT 8:12 PM CDT
Nautical Twilight 5:30 AM CDT 8:44 PM CDT
Astronomical Twilight 4:56 AM CDT 9:17 PM CDT
Moon 7:59 PM CDT 7:05 AM CDT
Length of Visible Light 14h 11m
Length of Day
13h 17m
Waxing Gibbous, 99% of the Moon is Illuminated
Aug 21
Waxing Gibbous
Aug 28
Last Quarter
Sep 5
New
Sep 12
First Quarter
Sep 19
Full

Hourly Weather History & Observations

Time (CDT) Temp. Heat Index Dew Point Humidity Pressure Visibility Wind Dir Wind Speed Gust Speed Precip Events Conditions
12:56 AM 72.9 °F - 70.0 °F 91% 30.08 in 10.0 mi Calm Calm - N/A   Clear
1:56 AM 72.9 °F - 70.9 °F 93% 30.08 in 10.0 mi Calm Calm - N/A   Clear
2:56 AM 70.9 °F - 70.9 °F 100% 30.07 in 10.0 mi Calm Calm - N/A   Clear
3:56 AM 70.0 °F - 70.0 °F 100% 30.07 in 8.0 mi Calm Calm - N/A   Clear
4:05 AM 69.8 °F - 69.8 °F 100% 30.08 in 1.5 mi Calm Calm - N/A   Clear
4:08 AM 69.8 °F - 69.8 °F 100% 30.08 in 0.8 mi Calm Calm - N/A   Clear
4:20 AM 69.8 °F - 69.8 °F 100% 30.08 in 0.5 mi Calm Calm - N/A Fog Fog
4:26 AM 69.8 °F - 69.8 °F 100% 30.08 in 1.0 mi Calm Calm - N/A   Clear
4:29 AM 69.8 °F - 69.8 °F 100% 30.08 in 1.5 mi Calm Calm - N/A   Clear
4:33 AM 68.0 °F - 68.0 °F 100% 30.08 in 1.0 mi Calm Calm - N/A   Clear
4:38 AM 69.8 °F - 69.8 °F 100% 30.08 in 0.5 mi Calm Calm - N/A Fog Fog
4:43 AM 69.8 °F - 69.8 °F 100% 30.09 in 1.0 mi Calm Calm - N/A   Clear
4:49 AM 69.8 °F - 69.8 °F 100% 30.09 in 0.5 mi Calm Calm - N/A Fog Fog
4:56 AM 68.0 °F - 68.0 °F 100% 30.08 in 1.2 mi NNW 3.5 mph - N/A   Clear
4:58 AM 68.0 °F - 68.0 °F 100% 30.09 in 2.5 mi NNW 3.5 mph - N/A   Clear
5:05 AM 68.0 °F - 68.0 °F 100% 30.09 in 10.0 mi NNW 3.5 mph - N/A   Clear
5:44 AM 68.0 °F - 68.0 °F 100% 30.10 in 1.5 mi NNW 3.5 mph - N/A   Clear
5:47 AM 66.2 °F - 66.2 °F 100% 30.10 in 1.0 mi NNW 3.5 mph - N/A   Clear
5:56 AM 66.9 °F - 66.9 °F 100% 30.10 in 1.2 mi NNW 4.6 mph - N/A   Clear
5:58 AM 66.2 °F - 66.2 °F 100% 30.11 in 2.0 mi NNW 4.6 mph - N/A   Clear
6:05 AM 66.2 °F - 66.2 °F 100% 30.11 in 10.0 mi NNW 4.6 mph - N/A   Clear
6:24 AM 66.2 °F - 66.2 °F 100% 30.11 in 1.2 mi North 5.8 mph - N/A   Clear
6:26 AM 66.2 °F - 66.2 °F 100% 30.11 in 0.8 mi North 5.8 mph - N/A   Clear
6:30 AM 66.2 °F - 66.2 °F 100% 30.12 in 0.2 mi NNE 8.1 mph - N/A Fog Fog
6:47 AM 66.2 °F - 66.2 °F 100% 30.12 in 0.5 mi NNE 9.2 mph - N/A Fog Fog
6:56 AM 66.9 °F - 66.9 °F 100% 30.12 in 0.8 mi NE 3.5 mph - N/A   Clear
7:02 AM 66.2 °F - 66.2 °F 100% 30.12 in 1.2 mi NNE 4.6 mph - N/A   Clear
7:06 AM 66.2 °F - 66.2 °F 100% 30.12 in 2.0 mi NNE 5.8 mph - N/A   Clear
7:18 AM 68.0 °F - 68.0 °F 100% 30.12 in 4.0 mi Calm Calm - N/A   Clear
7:56 AM 70.9 °F - 70.9 °F 100% 30.13 in 7.0 mi Calm Calm - N/A   Clear
8:56 AM 77.0 °F - 72.9 °F 87% 30.14 in 10.0 mi Calm Calm - N/A   Clear
9:56 AM 81.9 °F 86.6 °F 72.0 °F 72% 30.14 in 10.0 mi Calm Calm - N/A   Clear
10:56 AM 84.9 °F 91.4 °F 72.9 °F 67% 30.14 in 10.0 mi Calm Calm - N/A   Clear
11:56 AM 86.9 °F 93.3 °F 72.0 °F 61% 30.14 in 10.0 mi Calm Calm - N/A   Partly Cloudy
12:56 PM 90.0 °F 95.4 °F 70.0 °F 52% 30.12 in 10.0 mi SW 6.9 mph - N/A   Scattered Clouds
1:56 PM 91.9 °F 97.4 °F 70.0 °F 48% 30.10 in 10.0 mi Calm Calm - N/A   Scattered Clouds
2:56 PM 90.0 °F 95.9 °F 70.9 °F 53% 30.09 in 10.0 mi East 4.6 mph - N/A   Mostly Cloudy
3:56 PM 91.9 °F 95.4 °F 66.9 °F 44% 30.07 in 10.0 mi Calm Calm - N/A   Partly Cloudy
4:56 PM 90.0 °F 94.5 °F 68.9 °F 50% 30.06 in 10.0 mi Calm Calm - N/A   Partly Cloudy
5:56 PM 88.9 °F 93.8 °F 70.0 °F 53% 30.06 in 10.0 mi ESE 5.8 mph - N/A   Clear
6:56 PM 83.8 °F 91.4 °F 74.8 °F 74% 30.06 in 10.0 mi East 5.8 mph - N/A   Clear
7:56 PM 81.0 °F 85.6 °F 72.9 °F 76% 30.06 in 10.0 mi ESE 5.8 mph - N/A   Clear
8:56 PM 75.9 °F - 72.0 °F 87% 30.07 in 10.0 mi SE 6.9 mph - N/A   Clear
9:56 PM 73.9 °F - 70.9 °F 90% 30.09 in 7.0 mi SE 5.8 mph - N/A   Clear
10:56 PM 73.9 °F - 70.9 °F 90% 30.09 in 10.0 mi SSE 5.8 mph - N/A   Clear
11:56 PM 72.9 °F - 70.0 °F 91% 30.10 in 10.0 mi SE 5.8 mph - N/A   Clear